Time,TemperatureF,DewpointF,PressureIn,WindDirection,WindDirectionDegrees,WindSpeedMPH,WindSpeedGustMPH,Humidity,HourlyPrecipIn,Conditions,Clouds,dailyrainin,SoftwareType,DateUTC
2013-02-15 00:02:00,36.0,32.0,29.91,SSW,213,3.0,-999.0,85,-99.99,,,-99.99,,2013-02-15 05:02:00,
2013-02-15 00:12:00,36.0,32.0,29.91,SSW,213,3.0,-999.0,85,-99.99,,,-99.99,,2013-02-15 05:12:00,
2013-02-15 00:22:00,36.0,32.0,29.91,SSW,212,2.0,-999.0,86,-99.99,,,-99.99,,2013-02-15 05:22:00,
2013-02-15 00:32:00,35.0,31.0,29.91,SSW,212,0.0,-999.0,86,-99.99,,,-99.99,,2013-02-15 05:32:00,
2013-02-15 00:42:00,35.0,31.0,29.91,SSW,212,0.0,-999.0,86,-99.99,,,-99.99,,2013-02-15 05:42:00,
2013-02-15 00:52:00,35.0,32.0,29.91,SSW,212,0.0,-999.0,87,-99.99,,,-99.99,,2013-02-15 05:52:00,
2013-02-15 01:02:00,35.0,32.0,29.92,SSW,212,0.0,-999.0,88,-99.99,,,-99.99,,2013-02-15 06:02:00,
2013-02-15 01:11:00,34.0,31.0,29.91,SSW,212,0.0,-999.0,89,-99.99,,,-99.99,,2013-02-15 06:11:00,
2013-02-15 01:22:00,34.0,31.0,29.91,SSW,212,0.0,-999.0,89,-99.99,,,-99.99,,2013-02-15 06:22:00,
2013-02-15 01:32:00,34.0,31.0,29.91,SSW,212,0.0,-999.0,90,-99.99,,,-99.99,,2013-02-15 06:32:00,
2013-02-15 01:42:00,34.0,31.0,29.91,SSW,212,0.0,-999.0,90,-99.99,,,-99.99,,2013-02-15 06:42:00,
2013-02-15 01:52:00,34.0,31.0,29.91,SSW,212,0.0,-999.0,90,-99.99,,,-99.99,,2013-02-15 06:52:00,
2013-02-15 02:01:00,33.0,30.0,29.90,SSW,212,0.0,-999.0,90,-99.99,,,-99.99,,2013-02-15 07:01:00,
2013-02-15 02:11:00,33.0,30.0,29.90,SSW,212,0.0,-999.0,90,-99.99,,,-99.99,,2013-02-15 07:11:00,
2013-02-15 02:21:00,32.0,30.0,29.90,SSW,212,0.0,-999.0,91,-99.99,,,-99.99,,2013-02-15 07:21:00,
2013-02-15 02:32:00,32.0,30.0,29.90,SSW,212,0.0,-999.0,92,-99.99,,,-99.99,,2013-02-15 07:32:00,
2013-02-15 02:42:00,32.0,30.0,29.90,SSW,212,0.0,-999.0,92,-99.99,,,-99.99,,2013-02-15 07:42:00,
2013-02-15 02:52:00,32.0,30.0,29.91,SSW,212,0.0,-999.0,93,-99.99,,,-99.99,,2013-02-15 07:52:00,
2013-02-15 03:01:00,32.0,30.0,29.90,SSW,212,0.0,-999.0,93,-99.99,,,-99.99,,2013-02-15 08:01:00,
2013-02-15 03:11:00,32.0,30.0,29.90,SSW,212,0.0,-999.0,93,-99.99,,,-99.99,,2013-02-15 08:11:00,
2013-02-15 03:21:00,32.0,30.0,29.90,SSW,212,0.0,-999.0,94,-99.99,,,-99.99,,2013-02-15 08:21:00,
2013-02-15 03:32:00,32.0,30.0,29.90,SSW,212,0.0,-999.0,94,-99.99,,,-99.99,,2013-02-15 08:32:00,
2013-02-15 03:42:00,32.0,30.0,29.90,SSW,212,0.0,-999.0,94,-99.99,,,-99.99,,2013-02-15 08:42:00,
2013-02-15 03:52:00,32.0,30.0,29.90,SSW,212,0.0,-999.0,94,-99.99,,,-99.99,,2013-02-15 08:52:00,
2013-02-15 04:02:00,32.0,30.0,29.89,SSW,212,0.0,-999.0,94,-99.99,,,-99.99,,2013-02-15 09:02:00,
2013-02-15 04:12:00,32.0,30.0,29.89,SSW,212,0.0,-999.0,94,-99.99,,,-99.99,,2013-02-15 09:12:00,
2013-02-15 04:21:00,32.0,30.0,29.89,SSW,212,0.0,-999.0,94,-99.99,,,-99.99,,2013-02-15 09:21:00,
2013-02-15 04:32:00,32.0,30.0,29.90,SSW,212,0.0,-999.0,94,-99.99,,,-99.99,,2013-02-15 09:32:00,
2013-02-15 04:42:00,32.0,30.0,29.90,SSW,212,0.0,-999.0,94,-99.99,,,-99.99,,2013-02-15 09:42:00,
2013-02-15 04:52:00,32.0,30.0,29.90,SSW,212,0.0,-999.0,94,-99.99,,,-99.99,,2013-02-15 09:52:00,
2013-02-15 05:01:00,32.0,30.0,29.90,SSW,212,0.0,-999.0,94,-99.99,,,-99.99,,2013-02-15 10:01:00,
2013-02-15 05:11:00,32.0,30.0,29.90,SSW,212,0.0,-999.0,94,-99.99,,,-99.99,,2013-02-15 10:11:00,
2013-02-15 05:21:00,32.0,30.0,29.89,SSW,212,0.0,-999.0,93,-99.99,,,-99.99,,2013-02-15 10:21:00,
2013-02-15 05:32:00,31.0,29.0,29.89,SSW,212,0.0,-999.0,94,-99.99,,,-99.99,,2013-02-15 10:32:00,
2013-02-15 05:42:00,31.0,29.0,29.89,SSW,212,0.0,-999.0,94,-99.99,,,-99.99,,2013-02-15 10:42:00,
2013-02-15 05:52:00,31.0,29.0,29.89,SSW,212,0.0,-999.0,94,-99.99,,,-99.99,,2013-02-15 10:52:00,
2013-02-15 06:01:00,31.0,29.0,29.89,SSW,212,0.0,-999.0,94,-99.99,,,-99.99,,2013-02-15 11:01:00,
2013-02-15 06:11:00,31.0,29.0,29.89,SSW,212,0.0,-999.0,94,-99.99,,,-99.99,,2013-02-15 11:11:00,
2013-02-15 06:23:00,31.0,29.0,29.89,SSW,212,0.0,-999.0,94,-99.99,,,-99.99,,2013-02-15 11:23:00,
2013-02-15 06:32:00,31.0,29.0,29.89,SSW,212,0.0,-999.0,94,-99.99,,,-99.99,,2013-02-15 11:32:00,
2013-02-15 06:42:00,31.0,29.0,29.89,SSW,212,0.0,-999.0,94,-99.99,,,-99.99,,2013-02-15 11:42:00,
2013-02-15 06:52:00,31.0,29.0,29.90,SSW,212,0.0,-999.0,94,-99.99,,,-99.99,,2013-02-15 11:52:00,
2013-02-15 07:02:00,31.0,29.0,29.90,SSW,212,0.0,-999.0,94,-99.99,,,-99.99,,2013-02-15 12:02:00,
2013-02-15 07:11:00,31.0,29.0,29.90,SSW,212,0.0,-999.0,94,-99.99,,,-99.99,,2013-02-15 12:11:00,
2013-02-15 07:22:00,31.0,30.0,29.90,SSW,212,0.0,-999.0,95,-99.99,,,-99.99,,2013-02-15 12:22:00,
2013-02-15 07:32:00,31.0,30.0,29.90,SSW,212,0.0,-999.0,95,-99.99,,,-99.99,,2013-02-15 12:32:00,
2013-02-15 07:42:00,31.0,30.0,29.90,SSW,212,0.0,-999.0,95,-99.99,,,-99.99,,2013-02-15 12:42:00,
2013-02-15 07:52:00,31.0,30.0,29.91,SSW,212,0.0,-999.0,95,-99.99,,,-99.99,,2013-02-15 12:52:00,
2013-02-15 08:02:00,31.0,30.0,29.91,SSW,212,0.0,-999.0,95,-99.99,,,-99.99,,2013-02-15 13:02:00,
2013-02-15 08:11:00,31.0,30.0,29.91,SSW,212,0.0,-999.0,95,-99.99,,,-99.99,,2013-02-15 13:11:00,
2013-02-15 08:22:00,32.0,31.0,29.92,SSW,212,0.0,-999.0,96,-99.99,,,-99.99,,2013-02-15 13:22:00,
2013-02-15 08:32:00,32.0,31.0,29.92,SSW,212,0.0,-999.0,96,-99.99,,,-99.99,,2013-02-15 13:32:00,
2013-02-15 08:42:00,32.0,31.0,29.92,SSW,212,0.0,-999.0,96,-99.99,,,-99.99,,2013-02-15 13:42:00,
2013-02-15 08:52:00,35.0,34.0,29.92,SW,215,2.0,-999.0,95,-99.99,,,-99.99,,2013-02-15 13:52:00,
2013-02-15 09:01:00,36.0,34.0,29.92,SW,215,3.0,-999.0,93,-99.99,,,-99.99,,2013-02-15 14:01:00,
2013-02-15 09:12:00,36.0,34.0,29.92,SW,215,3.0,-999.0,93,-99.99,,,-99.99,,2013-02-15 14:12:00,
2013-02-15 09:21:00,37.0,35.0,29.92,SW,215,2.0,-999.0,91,-99.99,,,-99.99,,2013-02-15 14:21:00,
2013-02-15 09:32:00,38.0,35.0,29.92,SW,215,2.0,-999.0,89,-99.99,,,-99.99,,2013-02-15 14:32:00,
2013-02-15 09:42:00,38.0,35.0,29.92,SW,215,2.0,-999.0,89,-99.99,,,-99.99,,2013-02-15 14:42:00,
2013-02-15 09:52:00,39.0,35.0,29.92,SW,215,3.0,-999.0,87,-99.99,,,-99.99,,2013-02-15 14:52:00,
2013-02-15 10:02:00,41.0,37.0,29.92,SSW,213,3.0,-999.0,84,-99.99,,,-99.99,,2013-02-15 15:02:00,
2013-02-15 10:11:00,41.0,37.0,29.92,SSW,213,3.0,-999.0,84,-99.99,,,-99.99,,2013-02-15 15:11:00,
2013-02-15 10:22:00,42.0,37.0,29.92,West,267,2.0,-999.0,82,-99.99,,,-99.99,,2013-02-15 15:22:00,
2013-02-15 10:32:00,43.0,37.0,29.92,SW,230,4.0,-999.0,79,-99.99,,,-99.99,,2013-02-15 15:32:00,
2013-02-15 10:42:00,45.0,38.0,29.93,SW,232,2.0,-999.0,77,-99.99,,,-99.99,,2013-02-15 15:42:00,
2013-02-15 10:52:00,45.0,38.0,29.93,SW,232,2.0,-999.0,77,-99.99,,,-99.99,,2013-02-15 15:52:00,
2013-02-15 11:02:00,46.0,37.0,29.92,SW,222,4.0,-999.0,72,-99.99,,,-99.99,,2013-02-15 16:02:00,
2013-02-15 11:11:00,46.0,37.0,29.92,SW,222,4.0,-999.0,72,-99.99,,,-99.99,,2013-02-15 16:11:00,
2013-02-15 11:22:00,47.0,38.0,29.91,SW,234,3.0,-999.0,71,-99.99,,,-99.99,,2013-02-15 16:22:00,
2013-02-15 11:32:00,48.0,38.0,29.91,SW,224,3.0,-999.0,68,-99.99,,,-99.99,,2013-02-15 16:32:00,
2013-02-15 11:42:00,48.0,38.0,29.91,SW,224,3.0,-999.0,68,-99.99,,,-99.99,,2013-02-15 16:42:00,
2013-02-15 11:52:00,50.0,39.0,29.90,SW,222,2.0,-999.0,65,-99.99,,,-99.99,,2013-02-15 16:52:00,
2013-02-15 12:01:00,51.0,38.0,29.89,WSW,254,3.0,-999.0,61,-99.99,,,-99.99,,2013-02-15 17:01:00,
2013-02-15 12:11:00,51.0,37.0,29.89,WNW,290,5.0,-999.0,59,-99.99,,,-99.99,,2013-02-15 17:11:00,
2013-02-15 12:21:00,51.0,37.0,29.89,WNW,290,5.0,-999.0,59,-99.99,,,-99.99,,2013-02-15 17:21:00,
2013-02-15 12:32:00,52.0,39.0,29.88,SSW,196,4.0,-999.0,62,-99.99,,,-99.99,,2013-02-15 17:32:00,
2013-02-15 12:42:00,52.0,39.0,29.88,SSW,196,4.0,-999.0,62,-99.99,,,-99.99,,2013-02-15 17:42:00,
2013-02-15 12:52:00,52.0,39.0,29.88,SSW,196,4.0,-999.0,62,-99.99,,,-99.99,,2013-02-15 17:52:00,
2013-02-15 13:02:00,52.0,38.0,29.86,SW,232,4.0,-999.0,59,-99.99,,,-99.99,,2013-02-15 18:02:00,
2013-02-15 13:12:00,52.0,38.0,29.86,SW,232,4.0,-999.0,59,-99.99,,,-99.99,,2013-02-15 18:12:00,
2013-02-15 13:22:00,53.0,38.0,29.86,South,190,5.0,-999.0,57,-99.99,,,-99.99,,2013-02-15 18:22:00,
2013-02-15 13:32:00,54.0,39.0,29.85,SW,215,5.0,-999.0,57,-99.99,,,-99.99,,2013-02-15 18:32:00,
2013-02-15 13:42:00,54.0,39.0,29.85,SW,215,5.0,-999.0,57,-99.99,,,-99.99,,2013-02-15 18:42:00,
2013-02-15 13:52:00,54.0,38.0,29.85,SW,232,7.0,-999.0,54,-99.99,,,-99.99,,2013-02-15 18:52:00,
2013-02-15 14:02:00,55.0,39.0,29.84,SSW,207,5.0,-999.0,54,-99.99,,,-99.99,,2013-02-15 19:02:00,
2013-02-15 14:11:00,55.0,39.0,29.84,SSW,207,5.0,-999.0,54,-99.99,,,-99.99,,2013-02-15 19:11:00,
2013-02-15 14:22:00,55.0,38.0,29.83,WSW,244,5.0,-999.0,52,-99.99,,,-99.99,,2013-02-15 19:22:00,
2013-02-15 14:32:00,55.0,37.0,29.83,South,181,6.0,-999.0,51,-99.99,,,-99.99,,2013-02-15 19:32:00,
2013-02-15 14:42:00,55.0,37.0,29.83,South,181,6.0,-999.0,51,-99.99,,,-99.99,,2013-02-15 19:42:00,
2013-02-15 14:52:00,55.0,37.0,29.82,SSW,212,8.0,-999.0,51,-99.99,,,-99.99,,2013-02-15 19:52:00,
2013-02-15 15:01:00,56.0,37.0,29.82,SW,234,7.0,-999.0,49,-99.99,,,-99.99,,2013-02-15 20:01:00,
2013-02-15 15:11:00,56.0,37.0,29.82,SW,234,7.0,-999.0,49,-99.99,,,-99.99,,2013-02-15 20:11:00,
2013-02-15 15:21:00,56.0,36.0,29.82,SW,227,9.0,-999.0,46,-99.99,,,-99.99,,2013-02-15 20:21:00,
2013-02-15 15:32:00,56.0,37.0,29.81,West,273,7.0,-999.0,48,-99.99,,,-99.99,,2013-02-15 20:32:00,
2013-02-15 15:42:00,56.0,37.0,29.81,West,273,7.0,-999.0,48,-99.99,,,-99.99,,2013-02-15 20:42:00,
2013-02-15 15:52:00,55.0,37.0,29.81,SSW,200,8.0,-999.0,50,-99.99,,,-99.99,,2013-02-15 20:52:00,
2013-02-15 16:02:00,55.0,37.0,29.80,SSW,211,6.0,-999.0,50,-99.99,,,-99.99,,2013-02-15 21:02:00,
2013-02-15 16:11:00,55.0,37.0,29.80,SSW,211,6.0,-999.0,50,-99.99,,,-99.99,,2013-02-15 21:11:00,
2013-02-15 16:22:00,55.0,37.0,29.81,SW,214,6.0,-999.0,50,-99.99,,,-99.99,,2013-02-15 21:22:00,
2013-02-15 16:32:00,55.0,37.0,29.81,SSW,194,6.0,-999.0,51,-99.99,,,-99.99,,2013-02-15 21:32:00,
2013-02-15 16:42:00,55.0,37.0,29.81,SSW,194,6.0,-999.0,51,-99.99,,,-99.99,,2013-02-15 21:42:00,
2013-02-15 16:52:00,55.0,37.0,29.81,WSW,239,6.0,-999.0,50,-99.99,,,-99.99,,2013-02-15 21:52:00,
2013-02-15 17:02:00,55.0,37.0,29.81,WSW,257,5.0,-999.0,50,-99.99,,,-99.99,,2013-02-15 22:02:00,
2013-02-15 17:11:00,55.0,37.0,29.81,WSW,257,5.0,-999.0,50,-99.99,,,-99.99,,2013-02-15 22:11:00,
2013-02-15 17:22:00,54.0,36.0,29.81,SW,225,3.0,-999.0,50,-99.99,,,-99.99,,2013-02-15 22:22:00,
2013-02-15 17:32:00,54.0,36.0,29.81,SW,229,5.0,-999.0,51,-99.99,,,-99.99,,2013-02-15 22:32:00,
2013-02-15 17:42:00,54.0,36.0,29.81,SW,229,5.0,-999.0,51,-99.99,,,-99.99,,2013-02-15 22:42:00,
2013-02-15 17:51:00,54.0,36.0,29.81,SW,215,3.0,-999.0,51,-99.99,,,-99.99,,2013-02-15 22:51:00,
2013-02-15 18:02:00,53.0,35.0,29.81,SW,232,1.0,-999.0,51,-99.99,,,-99.99,,2013-02-15 23:02:00,
2013-02-15 18:11:00,53.0,35.0,29.81,SW,232,1.0,-999.0,51,-99.99,,,-99.99,,2013-02-15 23:11:00,
2013-02-15 18:21:00,53.0,36.0,29.81,SW,232,0.0,-999.0,53,-99.99,,,-99.99,,2013-02-15 23:21:00,
2013-02-15 18:32:00,52.0,36.0,29.81,SW,232,0.0,-999.0,54,-99.99,,,-99.99,,2013-02-15 23:32:00,
2013-02-15 18:42:00,52.0,36.0,29.81,SW,232,0.0,-999.0,54,-99.99,,,-99.99,,2013-02-15 23:42:00,
2013-02-15 18:52:00,51.0,35.0,29.80,SW,232,0.0,-999.0,55,-99.99,,,-99.99,,2013-02-15 23:52:00,
2013-02-15 19:02:00,51.0,36.0,29.81,SW,236,1.0,-999.0,56,-99.99,,,-99.99,,2013-02-16 00:02:00,
2013-02-15 19:11:00,51.0,36.0,29.81,SW,236,1.0,-999.0,56,-99.99,,,-99.99,,2013-02-16 00:11:00,
2013-02-15 19:22:00,50.0,35.0,29.82,NNW,347,1.0,-999.0,56,-99.99,,,-99.99,,2013-02-16 00:22:00,
2013-02-15 19:32:00,50.0,34.0,29.81,North,355,3.0,-999.0,54,-99.99,,,-99.99,,2013-02-16 00:32:00,
2013-02-15 19:42:00,50.0,34.0,29.81,North,355,3.0,-999.0,54,-99.99,,,-99.99,,2013-02-16 00:42:00,
2013-02-15 19:51:00,49.0,33.0,29.81,North,355,1.0,-999.0,54,-99.99,,,-99.99,,2013-02-16 00:51:00,
2013-02-15 20:02:00,49.0,34.0,29.82,North,355,0.0,-999.0,56,-99.99,,,-99.99,,2013-02-16 01:02:00,
2013-02-15 20:11:00,49.0,34.0,29.82,North,355,0.0,-999.0,56,-99.99,,,-99.99,,2013-02-16 01:11:00,
2013-02-15 20:21:00,48.0,34.0,29.82,North,355,0.0,-999.0,57,-99.99,,,-99.99,,2013-02-16 01:21:00,
2013-02-15 20:32:00,47.0,33.0,29.82,North,355,0.0,-999.0,58,-99.99,,,-99.99,,2013-02-16 01:32:00,
2013-02-15 20:42:00,47.0,33.0,29.82,North,355,0.0,-999.0,58,-99.99,,,-99.99,,2013-02-16 01:42:00,
2013-02-15 20:52:00,48.0,34.0,29.83,NW,317,1.0,-999.0,58,-99.99,,,-99.99,,2013-02-16 01:52:00,
2013-02-15 21:01:00,48.0,33.0,29.83,NW,326,0.0,-999.0,56,-99.99,,,-99.99,,2013-02-16 02:01:00,
2013-02-15 21:11:00,48.0,33.0,29.83,NW,326,0.0,-999.0,56,-99.99,,,-99.99,,2013-02-16 02:11:00,
2013-02-15 21:21:00,47.0,32.0,29.83,NNW,348,0.0,-999.0,55,-99.99,,,-99.99,,2013-02-16 02:21:00,
2013-02-15 21:32:00,47.0,32.0,29.83,NNW,348,0.0,-999.0,55,-99.99,,,-99.99,,2013-02-16 02:32:00,
2013-02-15 21:42:00,47.0,32.0,29.83,NNW,348,0.0,-999.0,55,-99.99,,,-99.99,,2013-02-16 02:42:00,
2013-02-15 21:52:00,47.0,31.0,29.84,North,350,1.0,-999.0,53,-99.99,,,-99.99,,2013-02-16 02:52:00,
2013-02-15 22:02:00,47.0,31.0,29.84,WNW,299,1.0,-999.0,54,-99.99,,,-99.99,,2013-02-16 03:02:00,
2013-02-15 22:11:00,47.0,31.0,29.84,WNW,299,1.0,-999.0,54,-99.99,,,-99.99,,2013-02-16 03:11:00,
2013-02-15 22:21:00,46.0,30.0,29.85,WNW,302,2.0,-999.0,54,-99.99,,,-99.99,,2013-02-16 03:21:00,
2013-02-15 22:32:00,46.0,31.0,29.86,NNW,333,3.0,-999.0,55,-99.99,,,-99.99,,2013-02-16 03:32:00,
2013-02-15 22:42:00,46.0,31.0,29.86,NNW,333,3.0,-999.0,55,-99.99,,,-99.99,,2013-02-16 03:42:00,
2013-02-15 22:52:00,45.0,32.0,29.86,NW,314,4.0,-999.0,61,-99.99,,,-99.99,,2013-02-16 03:52:00,
2013-02-15 23:01:00,44.0,34.0,29.86,NW,322,4.0,-999.0,67,-99.99,,,-99.99,,2013-02-16 04:01:00,
2013-02-15 23:11:00,44.0,34.0,29.86,NW,322,4.0,-999.0,67,-99.99,,,-99.99,,2013-02-16 04:11:00,
2013-02-15 23:21:00,43.0,35.0,29.87,NW,316,4.0,-999.0,72,-99.99,,,-99.99,,2013-02-16 04:21:00,
2013-02-15 23:32:00,42.0,35.0,29.87,North,10,3.0,-999.0,76,-99.99,,,-99.99,,2013-02-16 04:32:00,
2013-02-15 23:42:00,42.0,35.0,29.87,North,10,3.0,-999.0,76,-99.99,,,-99.99,,2013-02-16 04:42:00,
2013-02-15 23:51:00,41.0,35.0,29.88,NNW,343,4.0,-999.0,80,-99.99,,,-99.99,,2013-02-16 04:51:00,